COSMOS 2251 DEB, 33785

Orbit data source: Space-Track

COSMOS 2251 DEB, 33785 is space debris in LEO originally from a launch on Wed, 16 Jun 1993 UTC launched from the Plesetsk Missile And Space Complex (PKMTR). The debris from Iridium 33, an American commercial communications satellite, has been tracked extensively since its accidental collision with the defunct Russian satellite Cosmos 2251 in 2009. This event, occurring at high speed in low Earth orbit (LEO), generated thousands of pieces of space debris, significantly increasing the risk of further collisions. The Iridium 33 debris cloud has impacted space traffic management and orbital debris mitigation strategies, making it a subject of ongoing study in space situational awareness.

Loading next visibility...
Identifier
33785, 1993-036AA
Orbit
LEO
Last TLE update
17 hours ago
Origin
Manufacturer
Unknown
Mission
Spacecraft
Bus & Motor
Unknown
Mass
Unknown
Launch date (UTC)
1993-06-16 (32 years ago)
Launch vehicle
Unknown
Launch site
Plesetsk Missile And Space Complex (PKMTR)
Object type
Payload
Rocket body
Debris
Shape & HBR
Unknown
Radar Cross Section
Small (<0.1 m²)

Expand to show TLE details & history

TLE from 17 hours ago
0 COSMOS 2251 DEB
1 33785U 93036AA  25127.13390706  .00010699  00000-0  19439-2 0  9996
2 33785  73.8673 128.7719 0018621 124.9101 313.3454 14.66144414852950
Epoch: 2025-05-07T03:12Z
Definitive object data (Epoch: 2025-05-07T03:12:49.569Z)
Latitude
70.13824°
Longitude
-91.86964°
Altitude
676.154 km
Speed
7.53 km/s
True Right ascension
12h 06m 14s
True Declination
70° 01' 36"
Sunlit
Object was in daylight at TLE epoch
Visualization TLE readout
Latitude
-72.1038°
Longitude
96.93874°
Altitude
709.473 km
Speed
7.495 km/s
Apparent Right ascension
18h 13m 47s
Apparent Declination
-69° 03' 43"
Sunlit
Object is in daylight
Visualization observer readout
Local Sidereal Time
04:28:43
Azimuth
197.207° SSW
Elevation
-57.68°
Doppler factor
1
Orbital elements
Apogee altitude
684.135 km
Perigee altitude
657.883 km
Semi-major axis
7,049.146 km
Eccentricity
0.0018621
Inclination
73.8673°
RAAN
128.7719°
Arg. of periapsis
124.9101°
True anomaly
313.18998°
Mean anomaly
313.3454°
Eccentric anomaly
313.26771°
Mean motion
3.66723 °/min
BSTAR
0.0019439
Orbital period
98.17 mins
Loading maneuver chart data...
Loading SW <> Apogee altitude chart data...

COSMOS 2251 DEB Visibility forecast

Observer location: undefined°, undefined°

Span
Click to sort rows by Start time (UTC) header in descending order
Start Az.
Max El. time (UTC)
Max El. Az.
Max El.
End time (UTC)
End Az.
6 mins2025-05-08 00:16:28.728Z143.8° SSE2025-05-08 00:19:28.728Z100.072° ESE20.164°2025-05-08 00:22:28.728Z55.085° ENE
7 mins2025-05-08 01:56:28.728Z238.62° WSW2025-05-08 01:59:28.728Z299.644° NW30.328°2025-05-08 02:03:28.728Z1.299° NNE
6 mins2025-05-08 10:32:28.728Z15.119° NNE2025-05-08 10:35:28.728Z74.241° E25.945°2025-05-08 10:38:28.728Z120.272° SE
6 mins2025-05-08 12:12:28.728Z302.842° NW2025-05-08 12:14:28.728Z269.635° W23.081°2025-05-08 12:18:28.728Z206.456° SW
|